KPWTKCLM

Guest
Details From KPWT - Bremerton National
To KCLM - William R Fairchild Intl
Flight Number -
Tags Routegen
Created
Modified
Stats Distance 49 nm / 90 km
Max Altitude 0 ft / 0 m
Waypoints 2
Social Downloads 11
Likes 0
Share

Download

Looking for another format? Having issues loading an existing format? Contact us
Advertisement - Login to hide

Notes

None

Route

KPWT KCLM

ID Type Via Altitude (ft/m) Position (lat/lon) Dist (leg/tot) Name
O KPWT APT - 0 / 0 47.48333 / -122.77138 - / 0 nm
O KCLM APT - 0 / 0 48.12104 / -123.51152 48 / 48 nm

Altitude Profile

Advertisement - Login to hide

KPWT

Details ICAO KPWT (PWT)
Name Bremerton National
Region United States
Timezone America/Los_Angeles (UTC-7.0)
Stats Elevation 444 ft / 135 m (AMSL)
Location 47.490200° -122.765000°
Runways 1
Magnetic Variation 15.277° E

METAR

KPWT 130456Z AUTO 04003KT 10SM -RA SCT038 16/14 A2983 RMK AO2 SLP103 T01560139

Decode

TAF

TAF KPWT 122334Z 1300/1324 VRB05KT P6SM SCT040 BKN120 OVC200 FM130500 VRB03KT P6SM -RA BKN035 OVC080 FM130900 17009KT 3SM -RA BKN009 OVC012 FM131400 VRB04KT 2SM -RA BR OVC007 FM132200 15005KT 4SM -SHRA BR SCT009 OVC018

Decode

Departure Runways

ID Width Length Bearing (true/mag) Surface Threshold Overrun Markings Lighting
01 151 ft / 46 m 5,997 ft / 1,828 m 32.69° / 17.41° ASPHALT 0 ft / 0 m 0 ft / 0 m APP EDGE THRESHOLD
19 151 ft / 46 m 5,997 ft / 1,828 m 212.70° / 197.42° ASPHALT 0 ft / 0 m 1,243 ft / 379 m PREC-APP EDGE THRESHOLD MALSR

KCLM

Details ICAO KCLM (CLM)
Name WILLIAM R FAIRCHILD INTL
Region United States
Timezone America/Los_Angeles (UTC-7.0)
Stats Elevation 291 ft / 89 m (AMSL)
Location 48.120800° -123.500000°
Runways 2
Magnetic Variation 15.536° E

METAR

KCLM 130453Z AUTO 13003KT 10SM FEW055 BKN100 OVC110 16/09 A2980 RMK AO2 SLP092 T01560094

Decode

TAF

KCLM 122334Z 1300/1324 VRB04KT P6SM SCT040 BKN120 OVC200 FM130600 00000KT P6SM -RA BKN040 OVC070 FM131200 VRB03KT 5SM -RA OVC025 FM131600 VRB03KT 4SM -RA BR OVC015

Decode

Destination Runways

ID Width Length Bearing (true/mag) Surface Threshold Overrun Markings Lighting
08 151 ft / 46 m 6,353 ft / 1,936 m 104.61° / 89.08° ASPHALT 0 ft / 0 m 0 ft / 0 m PREC-APP EDGE THRESHOLD MALSR
13 49 ft / 15 m 3,244 ft / 989 m 147.64° / 132.10° ASPHALT 0 ft / 0 m 0 ft / 0 m APP EDGE THRESHOLD
26 151 ft / 46 m 6,353 ft / 1,936 m 284.63° / 269.10° ASPHALT 1,355 ft / 413 m 0 ft / 0 m APP EDGE THRESHOLD REIL-OMNI
31 49 ft / 15 m 3,244 ft / 989 m 327.64° / 312.11° ASPHALT 0 ft / 0 m 0 ft / 0 m APP EDGE THRESHOLD

Approach Navaids

Runway Type Ident Frequency Range Bearing (true/mag) Slope Elevation
08 LOC-ILS ICLM 108.90 MHz 18 nm / 33 km 104.64° / 89.10 ° - 291 ft / 89 m (AMSL)
08 GS ICLM 108.90 MHz 10 nm / 19 km 105.25° / 89.71 ° 3.00° 281 ft / 86 m (AMSL)
08 OM OM - - 104.62° / 89.09 ° - 1,069 ft / 326 m (AMSL)
08 MM MM - - 104.62° / 89.09 ° - 291 ft / 89 m (AMSL)

Popular Alternatives